TimeEDT,TemperatureF,Dew PointF,Humidity,Sea Level PressureIn,VisibilityMPH,Wind Direction,Wind SpeedMPH,Gust SpeedMPH,PrecipitationIn,Events,Conditions,WindDirDegrees,DateUTC
12:15 AM,50.0,50.0,100,29.97,10.0,Calm,Calm,-,N/A,,Clear,0,2013-05-09 04:15:00
12:35 AM,50.0,50.0,100,29.98,10.0,WSW,3.5,-,N/A,,Mostly Cloudy,250,2013-05-09 04:35:00
2:55 AM,50.0,50.0,100,29.93,4.0,Calm,Calm,-,N/A,,Overcast,0,2013-05-09 06:55:00
3:55 AM,50.0,50.0,100,29.92,4.0,SSW,3.5,-,N/A,,Mostly Cloudy,210,2013-05-09 07:55:00
4:15 AM,50.0,50.0,100,29.92,5.0,Calm,Calm,-,N/A,,Clear,0,2013-05-09 08:15:00
5:55 AM,50.0,50.0,100,29.93,5.0,South,4.6,-,N/A,,Mostly Cloudy,190,2013-05-09 09:55:00
7:35 AM,51.8,51.8,100,29.96,5.0,Calm,Calm,-,N/A,,Overcast,0,2013-05-09 11:35:00
7:55 AM,51.8,51.8,100,29.96,7.0,SW,3.5,-,N/A,,Mostly Cloudy,220,2013-05-09 11:55:00
8:15 AM,51.8,51.8,100,29.97,7.0,Calm,Calm,-,N/A,,Mostly Cloudy,0,2013-05-09 12:15:00
9:15 AM,53.6,53.6,100,29.99,10.0,SW,6.9,-,N/A,,Overcast,220,2013-05-09 13:15:00
10:55 AM,62.6,59.0,88,29.99,10.0,WSW,5.8,-,N/A,,Unknown,240,2013-05-09 14:55:00
11:15 AM,64.4,59.0,83,29.98,10.0,SW,6.9,-,N/A,,Scattered Clouds,220,2013-05-09 15:15:00
11:35 AM,64.4,59.0,83,29.98,10.0,WSW,3.5,-,N/A,,Mostly Cloudy,240,2013-05-09 15:35:00
11:55 AM,68.0,59.0,73,29.97,10.0,West,6.9,-,N/A,,Scattered Clouds,280,2013-05-09 15:55:00
12:15 PM,68.0,59.0,73,29.97,10.0,West,5.8,-,N/A,,Mostly Cloudy,280,2013-05-09 16:15:00
12:35 PM,66.2,57.2,73,29.98,10.0,WSW,3.5,-,N/A,,Overcast,240,2013-05-09 16:35:00
12:55 PM,68.0,55.4,64,29.98,10.0,WNW,8.1,-,N/A,,Overcast,300,2013-05-09 16:55:00
1:15 PM,69.8,55.4,60,29.98,10.0,West,10.4,17.3,N/A,,Mostly Cloudy,270,2013-05-09 17:15:00
1:35 PM,69.8,55.4,60,29.98,10.0,West,11.5,18.4,N/A,,Mostly Cloudy,280,2013-05-09 17:35:00
1:55 PM,69.8,55.4,60,29.98,10.0,WNW,8.1,-,N/A,,Overcast,300,2013-05-09 17:55:00
2:15 PM,69.8,55.4,60,29.97,10.0,West,10.4,-,N/A,,Overcast,270,2013-05-09 18:15:00
2:35 PM,69.8,55.4,60,29.97,10.0,West,13.8,17.3,N/A,,Mostly Cloudy,280,2013-05-09 18:35:00
2:55 PM,69.8,57.2,64,29.97,10.0,West,9.2,-,N/A,,Overcast,280,2013-05-09 18:55:00
3:15 PM,71.6,55.4,57,29.97,10.0,West,13.8,20.7,N/A,,Scattered Clouds,270,2013-05-09 19:15:00
3:35 PM,71.6,57.2,60,29.97,10.0,WNW,12.7,18.4,N/A,,Scattered Clouds,290,2013-05-09 19:35:00
4:15 PM,71.6,57.2,60,29.96,10.0,WNW,11.5,-,N/A,,Scattered Clouds,300,2013-05-09 20:15:00
4:35 PM,71.6,55.4,57,29.95,10.0,WNW,10.4,19.6,N/A,,Scattered Clouds,290,2013-05-09 20:35:00
4:55 PM,71.6,55.4,57,29.96,10.0,West,10.4,-,N/A,,Scattered Clouds,270,2013-05-09 20:55:00
5:15 PM,71.6,55.4,57,29.96,10.0,WSW,9.2,18.4,N/A,,Clear,250,2013-05-09 21:15:00
5:35 PM,71.6,57.2,60,29.96,10.0,West,10.4,-,N/A,,Clear,260,2013-05-09 21:35:00
5:55 PM,71.6,55.4,57,29.95,10.0,WSW,8.1,-,N/A,,Clear,250,2013-05-09 21:55:00
6:15 PM,71.6,55.4,57,29.96,10.0,West,8.1,-,N/A,,Scattered Clouds,280,2013-05-09 22:15:00
6:35 PM,69.8,55.4,60,29.96,10.0,West,6.9,-,N/A,Thunderstorm,Scattered Clouds,280,2013-05-09 22:35:00
6:55 PM,69.8,55.4,60,29.97,10.0,NW,8.1,-,N/A,,Clear,320,2013-05-09 22:55:00
7:15 PM,69.8,55.4,60,29.97,10.0,Calm,Calm,-,N/A,,Scattered Clouds,0,2013-05-09 23:15:00
7:35 PM,69.8,55.4,60,29.98,10.0,ENE,3.5,-,N/A,,Scattered Clouds,70,2013-05-09 23:35:00
7:55 PM,68.0,55.4,64,29.98,10.0,East,3.5,-,N/A,,Clear,80,2013-05-09 23:55:00
8:15 PM,64.4,55.4,73,29.99,10.0,Calm,Calm,-,N/A,,Scattered Clouds,0,2013-05-10 00:15:00
8:35 PM,60.8,55.4,82,30.00,10.0,Calm,Calm,-,N/A,,Scattered Clouds,0,2013-05-10 00:35:00
8:55 PM,59.0,55.4,88,30.01,10.0,Calm,Calm,-,N/A,,Scattered Clouds,0,2013-05-10 00:55:00
9:15 PM,59.0,55.4,88,30.01,10.0,West,3.5,-,N/A,,Mostly Cloudy,260,2013-05-10 01:15:00
9:35 PM,60.8,55.4,82,30.02,10.0,Calm,Calm,-,N/A,,Scattered Clouds,0,2013-05-10 01:35:00
10:15 PM,59.0,55.4,88,30.03,10.0,WSW,4.6,-,N/A,,Mostly Cloudy,240,2013-05-10 02:15:00
10:35 PM,59.0,55.4,88,30.02,10.0,Calm,Calm,-,N/A,,Clear,0,2013-05-10 02:35:00
10:55 PM,57.2,55.4,94,30.02,10.0,Calm,Calm,-,N/A,,Scattered Clouds,0,2013-05-10 02:55:00
11:15 PM,55.4,55.4,100,30.01,10.0,Calm,Calm,-,N/A,,Mostly Cloudy,0,2013-05-10 03:15:00
11:35 PM,55.4,55.4,100,30.01,10.0,Calm,Calm,-,N/A,,Scattered Clouds,0,2013-05-10 03:35:00
11:55 PM,55.4,55.4,100,30.01,10.0,SSW,3.5,-,N/A,,Clear,210,2013-05-10 03:55:00